Regional Weather Roundup
Issued by NWS Grand Forks, ND

Home | Current Version | Previous Version | Text Only | Print | Product List | Glossary Off
Versions: 1 2 3 4 5 6 7 8 9 10 11 12 13 14 15 16 17 18 19 20 21 22 23 24 25 26 27 28 29 30 31 32 33 34 35 36 37 38 39 40 41 42 43 44 45 46 47 48 49 50

000
ASUS43 KFGF 261331
RWRFGF
PRAIRIE TO PINES  WEATHER ROUNDUP
NATIONAL WEATHER SERVICE EASTERN NORTH DAKOTA/GRAND FORKS ND
700 AM CST THU FEB 26 2015

 **SATELLITE DATA USED TO AUGMENT SKY COVER AT AUTOMATED STATIONS**
 *****  WEATHER ACROSS EASTERN NORTH DAKOTA  *****

CITY           SKY/WX    TMP DP  RH WIND       PRES   REMARKS
GRAND FORKS    CLEAR    -17 -23  73 NW7       30.55R WCI -33
GRAND FRKS AFB CLEAR    -13 -21  68 W7        30.54R WCI -29
GRAND FRKS NWS   N/A    -13 N/A N/A N7          N/A  WCI -29
DEVILS LAKE    PTCLDY   N/A N/A N/A MISG        N/A
FARGO          CLEAR    -11 -18  71 NW8       30.53R WCI -28
WAHPETON ARPT  SUNNY     -9 -15  77 N9        30.52R WCI -27
$$

 ***** WEATHER ACROSS CENTRAL AND WESTERN NORTH DAKOTA  *****

CITY           SKY/WX    TMP DP  RH WIND       PRES   REMARKS
BISMARCK       CLEAR    -10 -16  74 NW7       30.55R WCI -25
MINOT          PTCLDY   -13 -21  67 W13       30.53R WCI -34
JAMESTOWN      CLEAR    -14 -19  79 NW9       30.49R WCI -33
MINOT AFB      CLEAR    -16 -22  74 W12       30.54R WCI -37
GARRISON         N/A    -17 -22  78 NW12      30.52R WCI -38
WILLISTON      PTCLDY   -16 -22  74 CALM      30.57S
DICKINSON      CLEAR    -11 -16  78 NW10      30.44R WCI -30
HETTINGER      CLEAR    -13 -18  78 W7        30.44R WCI -29
$$

 *****  OTHER AIRPORT OBSERVATIONS IN OUR AREA  *****

CITY           SKY/WX    TMP DP  RH WIND       PRES   REMARKS
WALHALLA         N/A     -9 -17  70 W8        30.53S WCI -26
GRAFTON AIRPOR NOT AVBL
VALLEY CITY AR FAIR     -13 -18  77 NW12      30.50R WCI -33
CANDO          FAIR     -17 -20  83 NW10      30.51S WCI -37
CAVALIER APRT  FAIR     -13 -18  77 W5        30.54R WCI -25
GWINNER        SUNNY     -9 -17  70 NW9       30.51S WCI -27
ROLLA          FAIR      -9 -18  64 NW13      30.47R WCI -30
 ***** THE ABOVE OBSERVATIONS ARE NON NWS ARE NOT QUALITY
       CONTROLLED AND MAY MIS-REPORT RAIN FOR SNOW...
$$

  *****  WEATHER ACROSS NORTHERN MINNESOTA  *****

CITY           SKY/WX    TMP DP  RH WIND       PRES   REMARKS
FLAG ISLAND    PTCLDY   -20 -27  69 NW9       30.43S WCI -40
WARROAD        MOCLDY   -20 -26  76 W6        30.45R WCI -36
ROSEAU         MOCLDY   -17 -24  70 W7        30.47R WCI -33
HALLOCK        PTCLDY   -17 -24  70 NW3       30.53R
THF RVR FALLS  PTCLDY   -17 -27  58 W5        30.47R WCI -29
BAUDETTE       MOCLDY   -21 -26  77 W6        30.41R WCI -36
WASKISH        PTCLDY   -18 -24  76 CALM      30.42R
CROOKSTON      CLEAR    -17 -22  76 N6        30.54R WCI -31
STEPHEN NDAWN    N/A    -17 -24  70 NW6         N/A  WCI -31
GREENBUSH NDAW   N/A    -18 -24  76 MISG        N/A
$$
  *****  WEATHER ACROSS CENTRAL AND WEST MINNESOTA  *****

CITY           SKY/WX    TMP DP  RH WIND       PRES   REMARKS
FOSSTON        PTCLDY   -22 -27  76 CALM      30.46R
BEMIDJI        PTCLDY   -19 -24  77 NW5       30.40R WCI -32
PARK RAPIDS    CLEAR    -20 -27  70 W5        30.39R WCI -33
ELBOW LAKE     FAIR     -12 -16  82 NW8       30.46R WCI -29
WADENA         CLEAR    -15 -20  76 NW7       30.41R WCI -31
DETROIT LAKES  CLEAR    -13 -17  84 NW6       30.44R WCI -27
MOORHEAD       CLEAR    -11 -17  77 NW8       30.53R WCI -28
FERGUS FALLS   CLEAR    -13 -20  70 N7        30.53R WCI -29
MORRIS MN      CLEAR    -11 -17  77 NW9       30.46S WCI -29
STAPLES        CLEAR    -17 -22  76 NW7       30.41R WCI -33
$$
  *****  WEATHER ELSEWHERE ACROSS MINNESOTA  *****

CITY           SKY/WX    TMP DP  RH WIND       PRES   REMARKS
DULUTH         PTCLDY   -14 -21  71 NW8       30.30R WCI -31
INTRNTL FALLS  MOCLDY   -28 -33  77 W3        30.38R
ELY            PTCLDY   -29 -36  68 CALM        N/A
CLOQUET        CLEAR    -15 -20  76 NW6       30.34R WCI -29
WHEATON        CLEAR    -15 -18  84 NW5       30.52S WCI -27
BRAINERD       CLEAR    -14 -19  79 NW5       30.40R WCI -26
HIBBING        PTCLDY   -15 -21  74 CALM      30.34R
ALEXANDRIA     CLEAR    -12 -17  78 NW7       30.41R WCI -27
SAINT CLOUD    CLEAR     -9 -15  75 NW8       30.41R WCI -25
MINNEAPOLIS    CLEAR     -3 -12  65 NW9       30.40R WCI -19
$$

  *****  WEATHER ACROSS SOUTH DAKOTA  *****

CITY           SKY/WX    TMP DP  RH WIND       PRES   REMARKS
SIOUX FALLS    CLEAR     -9 -15  75 NW9       30.45R WCI -26
BROOKINGS      NOT AVBL
WATERTOWN      CLEAR    -14 -18  82 NW7       30.41R WCI -30
HURON          PTCLDY   -17 -21  82 NW9       30.52R WCI -36
SISSETON         N/A    -12 -17  78 N12       30.49R WCI -32
ABERDEEN       CLEAR    -10 -16  74 NW10      30.52R WCI -29
MITCHELL       CLEAR     -7 -12  79 NW10      30.53R WCI -25
PIERRE         CLEAR     -5 -11  75 NW13      30.50R WCI -24
MOBRIDGE       CLEAR     -9 -15  75 NW13      30.47R WCI -29
RAPID CITY     LGT SNOW   0  -4  83 N12       30.39R FOG     WCI -17
$$

  *****  SOME WEATHER IN NEARBY STATES *****

CITY           SKY/WX    TMP DP  RH WIND       PRES   REMARKS
GLASGOW MT     CLEAR     -5 -12  72 CALM      30.56R
GREAT FALLS MT LGT SNOW   5   3  92 E9        30.34S FOG     WCI  -9
CHEYENNE WY    FLURRIES   8   2  76 N6        30.09S WCI  -2
SCOTTSBLUFF NE CLOUDY    10   2  69 NE9       30.28R WCI  -3
OMAHA NE       PTCLDY     1  -5  75 N14       30.44R WCI -17
DES MOINES IA  MOCLDY     3  -7  63 N14       30.35R WCI -15
DAVENPORT IA   CLOUDY     9   0  67 N15       30.21R WCI  -8
CHICAGO IL     LGT SNOW  15   9  76 NE15      30.15R WCI   0
EAU CLAIRE WI  CLEAR     -6 -14  68 N5        30.33R WCI -17
LA CROSSE WI   CLEAR     -4 -11  72 NW7       30.34R WCI -18
$$

  *****  SOME NATIONAL WEATHER *****

CITY           SKY/WX    TMP DP  RH WIND       PRES   REMARKS
LA GUARDIA NY  CLOUDY    22   6  50 NE13      30.02S WCI  10
RALEIGH NC     FRZ DRZL  31  27  85 NE12G20   29.75R FOG     WCI  22
ATLANTA GA     CLOUDY    33  31  92 NW9       29.84R FOG
NEW ORLEANS LA CLOUDY    38  33  82 N15       29.97R
OKLAHOMA CITY  MOCLDY    22  10  60 N26G36    30.26R WCI   5
ALBUQUERQUE NM PTCLDY    33  21  61 N5        30.03R
SALT LAKE CITY CLOUDY    36  20  52 SE5       29.95F
LOS ANGELES CA PTCLDY    52  48  87 CALM      29.95R
BOISE ID       CLOUDY    39  33  79 NW10      30.06F
SEATTLE WA     CLOUDY    46  44  93 CALM      30.21F
$$

*** WEATHER ACROSS MANITOBA...SASKATCHEWAN AND ONTARIO ***
                ***ONTARIO***

CITY           SKY/WX    TMP DP  RH WIND       PRES   REMARKS
GERALDTON      CLEAR    -22 -27  76 W5        30.20R WCI -36
THUNDER BAY    CLEAR    -18 -24  76 SW7       30.36S WCI -35
SIOUX LOOKOUT  PTCLDY   -22 -27  76 NW5       30.31S WCI -36
TORONTO        CLOUDY     3  -4  72 N7        30.12R WCI  -9
BIG TROUT LK   FLURRIES -15 -20  76 W13       30.14  WCI -37
PICKLE LAKE    PTCLDY   -22 -27  76 W12       30.20R WCI -45
DRYDEN         CLEAR    -22 -27  76 W8        30.33R WCI -41
KENORA         CLEAR    -22 -27  76 NW10      30.38R WCI -44
$$
                *** MANITOBA***

CITY           SKY/WX    TMP DP  RH WIND       PRES   REMARKS
BRANDON        PTCLDY   -17 -24  70 W13       30.54R WCI -39
DAUPHIN        CLEAR     -9 -17  70 W12       30.54S WCI -29
ISLAND LAKE    PTCLDY   -13 -20  70 W12       30.31S WCI -33
PILOT MOUND      N/A    -17 -22  76 W6          N/A  WCI -31
THE PAS        CLEAR     -9 -17  70 NW13      30.53S WCI -30
THOMPSON       CLEAR     -8 -17  65 NW10      30.36S WCI -26
WINNIPEG       CLEAR    -20 -27  69 W9        30.53S WCI -40
LYNN LAKE      CLEAR     -9 -15  77 W13       30.41S WCI -30
CHURCHILL      PTCLDY    -9 -17  70 NW18      30.18S WCI -33
GILLAM         CLEAR     -9 -17  70 W10       30.26R WCI -28
$$
                ***SASKATCHEWAN***

CITY           SKY/WX    TMP DP  RH WIND       PRES   REMARKS
ESTEVAN        CRYSTALS -20 -27  69 NW9       30.56R WCI -40
KINDERSLEY     PTCLDY   -13 -17  84 NE3       30.55F
LLOYDMINSTER   CLEAR     -9 -15  77 S10       30.52F WCI -28
PRINCE ALBERT  CLEAR    -18 -22  83 W6        30.62S WCI -33
REGINA         CLEAR    -26 -31  75 W6        30.59R WCI -42
YORKTON        CLEAR    -11 -18  70 W10       30.54R WCI -30
N. BATTLEFORD  CLEAR    -22 -31  63 NW5       30.63S WCI -36
LA RONGE       CLEAR    -17 -20  83 VRB2      30.60S
SASKATOON      CLEAR    -22 -27  76 W5        30.64S WCI -36
SWIFT CURRENT  CLEAR    -13 -18  77 SW5       30.50S WCI -25
$$
NOTE: THESE ARE AUTOMATED STATIONS WITH LIMITED QUALITY CONTROL
      "FAIR" INDICATES FEW OR NO CLOUDS BELOW 12,000 FEET WITH NO
      SIGNIFICANT WEATHER AND/OR OBSTRUCTIONS TO VISIBILITY.
      SKY/WX - SKY CONDITION AND SIGNIFICANT WEATHER.
      TMP - AIR TEMPERATURE.    DP   - DEWPOINT TEMPERATURE.
      RH  - RELATIVE HUMIDITY.  PRES - PRESSURE.
      HX  - HEAT INDEX.         WCI  - WIND CHILL INDEX.
$



USA.gov is the U.S. government's official web portal to all federal, state and local government web resources and services.